Regional Weather Roundup
Issued by NWS

Home | Current Version | Previous Version | Text Only | Print | Product List | Glossary Off
Versions: 1 2 3 4 5 6 7 8 9 10 11 12 13 14 15 16 17 18 19 20 21 22 23 24 25 26 27 28 29 30 31 32 33 34 35 36 37 38 39 40 41 42 43 44 45 46 47 48 49 50

000
ASUS43 KMKX 210921
RWRWI

WISCONSIN REGIONAL WEATHER ROUNDUP
NATIONAL WEATHER SERVICE MILWAUKEE/SULLIVAN WI
400 AM CDT THU AUG 21 2014

NOTE: "FAIR" INDICATES FEW OR NO CLOUDS BELOW 12,000 FEET WITH NO
SIGNIFICANT WEATHER AND/OR OBSTRUCTIONS TO VISIBILITY.

WIZ001-002-006>008-014>016-023>028-211000-
NORTHWEST WISCONSIN

CITY           SKY/WX    TMP DP  RH WIND       PRES   REMARKS
SUPERIOR ARPT  FOG       60  60  99 NE9G16    29.88F VSB 1
ASHLAND        FOG       59  59 100 E3        29.93F VSB<1/4
HAYWARD        CLEAR     62  60  93 CALM      29.91F
SIREN          CLOUDY    65  61  88 SE6       29.86F
RICE LAKE      PTCLDY    64  60  89 E7        29.89F
LADYSMITH      CLOUDY    62  60  93 E3        29.93F
EAU CLAIRE     MOCLDY    66  64  93 SE8       29.87F
MENOMONIE      CLOUDY    66  63  90 E8        29.86S
NEW RICHMOND   CLOUDY    67  62  84 SE7       29.84S
OSCEOLA        CLOUDY    67  63  87 E8        29.86R
$$

WIZ003>005-009-010-017-018-211000-
NORTH CENTRAL WISCONSIN

CITY           SKY/WX    TMP DP  RH WIND       PRES   REMARKS
WOODRUFF       MOCLDY    59  56  89 SE8       29.96S
RHINELANDER    FOG       59  59 100 SE7       29.97S VSB 1/2
EAGLE RIVER    CLOUDY    61  61 100 CALM      29.97R
LAND O LAKES   CLOUDY    59  58  98 CALM      29.98S FOG
PHILLIPS       CLOUDY    56  56 100 E3        29.93F
TOMAHAWK       FOG       50  49  97 CALM      29.96F VSB 3/4
MEDFORD        MOCLDY    60  60  98 SE3       29.93F
MERRILL        MOCLDY    55  55 100 CALM      29.95S
$$

WIZ029-030-035-036-043>047-211000-
CENTRAL WISCONSIN

CITY           SKY/WX    TMP DP  RH WIND       PRES   REMARKS
WAUSAU         PTCLDY    60  59  96 E7        29.93F
MOSINEE        CLEAR     57  57 100 E3        29.95F
MARSHFIELD     CLEAR     63  61  93 E5        29.92F
STEVENS POINT  CLEAR     60  59  97 CALM      29.94F FOG
WAUPACA        MOCLDY    62  61  94 CALM      29.94F
WAUTOMA        CLEAR     62  62 100 CALM      29.93F
WISC RAPIDS    CLEAR     63  62  97 E3        29.93F
CAMP DOUGLAS   PTCLDY    64  64 100 SE6       29.90F FOG
$$

WIZ011>013-019>022-031-037>040-048>050-211000-
NORTHEAST WISCONSIN

CITY           SKY/WX    TMP DP  RH WIND       PRES   REMARKS
ANTIGO         FOG       61  61 100 SE3       29.97S VSB 1/2
STURGEON BAY   CLOUDY    61  59  94 CALM      29.96F VSB 3/4
GREEN BAY      PTCLDY    59  58  96 CALM      29.94F FOG
MANITOWOC      CLOUDY    63  63 100 E3        29.95F FOG
APPLETON       PTCLDY    64  61  88 E5        29.95S
CLINTONVILLE   CLOUDY    57  55  94 CALM      29.94S FOG
OSHKOSH        PTCLDY    63  61  93 CALM      29.94S
$$

WIZ032>034-041-042-053>061-211000-
SOUTHWEST WISCONSIN

CITY           SKY/WX    TMP DP  RH WIND       PRES   REMARKS
LA CROSSE      CLOUDY    72  67  84 SE6       29.86F
SPARTA         MOCLDY    67  64  90 CALM      29.89F
VIROQUA        PTSUNNY   67  67 100 SE7       29.90F
BOSCOBEL       LGT RAIN  69  66  90 E6        29.90F FOG
PRAIRIE DU CHI MOCLDY    70  66  86 E3        29.87F
PLATTEVILLE    CLOUDY    70  66  87 E7        29.92S
$$

WIZ056-057-062-063-064-067-068-211000-
SOUTH CENTRAL WISCONSIN

CITY           SKY/WX    TMP DP  RH WIND       PRES   REMARKS
BARABOO/DELLS  MOCLDY    65  62  92 CALM      29.92S FOG
LONE ROCK      TSTM      73  68  84 W5        29.93R
WATERTOWN      CLOUDY    66  65  96 CALM      29.93R
MADISON        MOCLDY    70  67  90 S6        29.92S
MIDDLETON      CLOUDY    69  69 100 CALM      29.92F
MONROE         TSTM      68  66  94 NE3       29.93S
JANESVILLE     RAIN      70  66  88 SE3       29.91F
$$

WIZ051-052-058>065-066-070>072-211000-
SOUTHEAST WISCONSIN

CITY           SKY/WX    TMP DP  RH WIND       PRES   REMARKS
MILWAUKEE      MOCLDY    66  62  87 CALM      29.94S
WAUKESHA       PTCLDY    63  61  94 CALM      29.95S
MILWAUKEE/TIMM MOCLDY    64  61  88 CALM      29.95S
RACINE         PTCLDY    66  63  90 CALM      29.95F
BURLINGTON     MOCLDY    62  62  99 SW6       29.96R FOG
KENOSHA        PTCLDY    67  65  93 S5        29.95S
FOND DU LAC    PTCLDY    63  60  90 SE5       29.94F
SHEBOYGAN      FOG       60  59  96 CALM      29.95S VSB 1/4
WEST BEND      PTCLDY    61  59  94 CALM      29.95S FOG
JUNEAU         PTCLDY    64  38  37 E5        29.95R
$$

LSZ147-162-211000-
LAKE SUPERIOR

STATION/POSITION TIME  TEMP    WIND        PRES    WAVE
                       AIR SEA DIR/SP/G            HT/PER
                 (UTC) (F)     (DEG/KT/KT) (MB)    (FT/S)
W MID LAKE BUOY  0850   57 57   90/  6/  8 1014.2F   0
DEVILS ISLAND    0900   61      90/  9/  9 1013.4F
PORT WING        0800   58     140/  2/  3 1013.2
SAXON HARBOR     0820   56        CALM     1013.5F
$$

LMZ867-665-643>646-211000-
LAKE MICHIGAN

STATION/POSITION TIME  TEMP    WIND        PRES    WAVE
                       AIR SEA DIR/SP/G            HT/PER
                 (UTC) (F)     (DEG/KT/KT) (MB)    (FT/S)
N MID LAKE BUOY  0850   63 63  210/  2/  2 1014.3F   0
NORTHPORT PIER   0800   65     190/  1/  5 1014.9R
SISTER BAY       0811   65        CALM       N/A
ALGOMA LAKESHORE 0723             CALM       N/A
KEWAUNEE LAKESHO 0800   61      CALM  /  2 1013.9S
SHEBOYGAN LAKESH 0900   66 66   80/  2/  2 1014.2F
ATWATER BUOY     0900   68      90/  2/  4 1014.9F
MILWAUKEE LAKESH 0900   68      90/  3/  3   N/A
S MID LAKE BUOY  0850   68 68   60/  6/  6 1013.5F   0
KENOSHA   LAKESH 0900   70     190/  3/  5 1013.9R
$$

TC  - TEMPERATURE IN CELSIUS
VSB - VISIBILITY IN STATUTE MILES
WCI - WIND CHILL INDEX
HX  - HEAT INDEX



USA.gov is the U.S. government's official web portal to all federal, state and local government web resources and services.